EW9525 Weather Reports


time (UTC)temp
F
wind
direction
speed
knots
gust
knots
rain 1hr
in
rain 24hr
in
rain mn
in
humidity
%
barometer
mb
20260503203011 77 69 7.0 13.0 0.00 0.00 0.00 24 1008.6
20260503201504 76 51 7.0 13.9 0.00 0.00 0.00 21 1009.0
20260503200003 77 64 8.7 15.6 0.00 0.00 0.00 22 1009.3
20260503194505 78 31 10.4 15.6 0.00 0.00 0.00 21 1009.4
20260503193118 76 18 11.3 15.6 0.00 0.00 0.00 23 1009.5
20260503191618 76 41 12.2 15.6 0.00 0.00 0.00 24 1009.5
20260503190059 76 46 9.6 16.5 0.00 0.00 0.00 26 1009.9
20260503184553 74 14 7.8 15.6 0.00 0.00 0.00 24 1010.2
20260503183050 74 53 11.3 20.0 0.00 0.00 0.00 25 1010.7
20260503181550 74 44 12.2 16.5 0.00 0.00 0.00 25 1010.9
20260503180055 73 56 11.3 15.6 0.00 0.00 0.00 26 1011.2
20260503174551 73 8 12.2 17.4 0.00 0.00 0.00 26 1011.4
20260503173041 72 11 14.8 20.0 0.00 0.00 0.00 26 1011.7
20260503171539 71 13 14.8 20.0 0.00 0.00 0.00 26 1011.9
20260503081539 45 193 4.3 7.8 0.00 0.00 0.00 56 1012.4
20260503071529 46 174 4.3 7.0 0.00 0.00 0.00 53 1012.6
20260503054516 46 144 1.7 3.5 0.00 0.00 0.00 54 1013.0
20260503053012 48 190 1.7 3.5 0.00 0.00 0.00 50 1013.0
20260503051507 53 148 3.5 7.0 0.00 0.00 0.00 45 1013.0
20260503050005 52 184 3.5 6.1 0.00 0.00 0.00 47 1013.1
20260503044505 50 160 2.6 4.3 0.00 0.00 0.00 46 1013.2
20260503043002 51 191 1.7 3.5 0.00 0.00 0.00 46 1013.3
20260503041506 50 162 1.7 3.5 0.00 0.00 0.00 46 1013.3
20260503040003 52 194 2.6 5.2 0.00 0.00 0.00 42 1013.4
20260503034603 52 159 2.6 5.2 0.00 0.00 0.00 40 1013.5
20260503033105 53 176 2.6 4.3 0.00 0.00 0.00 39 1013.5
20260503031600 54 194 2.6 4.3 0.00 0.00 0.00 38 1013.5
20260503030059 55 173 2.6 3.5 0.00 0.00 0.00 36 1013.6
20260503024559 57 186 2.6 3.5 0.00 0.00 0.00 35 1013.4
20260503023100 59 165 2.6 3.5 0.00 0.00 0.00 31 1013.5
20260503021557 59 148 1.7 3.5 0.00 0.00 0.00 30 1013.4
20260503020059 62 103 2.6 4.3 0.00 0.00 0.00 30 1013.4
20260503014602 65 108 2.6 3.5 0.00 0.00 0.00 27 1013.3
20260503013056 68 112 2.6 3.5 0.00 0.00 0.00 25 1013.4
20260503011555 69 127 1.7 2.6 0.00 0.00 0.00 24 1013.5
20260503010055 71 116 1.7 2.6 0.00 0.00 0.00 21 1013.5
20260503004553 73 140 1.7 6.1 0.00 0.00 0.00 20 1013.5
20260503003052 74 166 3.5 5.2 0.00 0.00 0.00 19 1013.6
20260503001551 74 145 1.7 5.2 0.00 0.00 0.00 18 1013.9
20260503000049 75 221 3.5 9.6 0.00 0.00 0.00 19 1014.1
20260502234553 75 155 5.2 8.7 0.00 0.00 0.00 18 1014.3
20260502233046 74 155 2.6 9.6 0.00 0.00 0.00 19 1014.4
20260502231545 74 203 6.1 12.2 0.00 0.00 0.00 19 1014.7
20260502230042 74 134 2.6 10.4 0.00 0.00 0.00 18 1014.7
20260502224545 74 187 6.1 10.4 0.00 0.00 0.00 18 1014.9
20260502223044 74 206 7.8 13.0 0.00 0.00 0.00 20 1015.0
20260502221537 74 229 5.2 12.2 0.00 0.00 0.00 19 1015.4
20260502220034 74 207 6.1 13.0 0.00 0.00 0.00 19 1015.6
20260502214537 73 190 6.1 11.3 0.00 0.00 0.00 21 1016.0
20260502213029 73 193 5.2 9.6 0.00 0.00 0.00 21 1016.2
20260502211526 73 198 6.1 12.2 0.00 0.00 0.00 21 1016.6
20260502210025 72 171 3.5 7.8 0.00 0.00 0.00 23 1016.9
20260502204520 72 184 7.8 15.6 0.00 0.00 0.00 23 1017.3